When you browse on this site, cookies collect data to enhance your experience and personalize the content and advertising you see.
Visit our Privacy Policy to learn more. By continuing to use the site, you agree to this use of cookies and data.
  • In Hungary
  • List of Countries
  • For 7 days
  • Water Temperature
  • Satellite Maps
  • Weather Map
  • News
  • Weather Widgets
  • user-avatar
    Login

    Hourly Weather La Palma

    Today, 26 June, Wednesday

    Time Temperature Precipitation Wind Pressure Humidity
    00:00 +26°C° 0 mm 1 mps 758 mmHg 96%
    01:00 +26°C° 0 mm 1 mps 758 mmHg 96%
    02:00 +26°C° 0 mm 1 mps 757 mmHg 97%
    03:00 +26°C° 0 mm 1 mps 757 mmHg 97%
    04:00 +26°C° 0 mm 1 mps 757 mmHg 98%
    05:00 +26°C° 0.1 mm 1 mps 757 mmHg 97%
    06:00 +26°C° 0.1 mm 1 mps 757 mmHg 96%
    07:00 +27°C° 0.1 mm 1 mps 757 mmHg 95%
    08:00 +28°C° 0.2 mm 1 mps 757 mmHg 88%
    09:00 +30°C° 0.2 mm 1 mps 757 mmHg 82%
    10:00 +32°C° 0.2 mm 1 mps 757 mmHg 76%
    11:00 +31°C° 2.6 mm 1 mps 757 mmHg 79%
    12:00 +31°C° 2.6 mm 2 mps 757 mmHg 82%
    13:00 +31°C° 2.6 mm 2 mps 756 mmHg 86%
    14:00 +31°C° 2.8 mm 2 mps 756 mmHg 86%
    15:00 +30°C° 2.8 mm 2 mps 755 mmHg 87%
    16:00 +30°C° 2.8 mm 1 mps 754 mmHg 88%
    17:00 +29°C° 0.7 mm 1 mps 755 mmHg 90%
    18:00 +28°C° 0.7 mm 1 mps 755 mmHg 92%
    19:00 +27°C° 0.7 mm 1 mps 755 mmHg 94%
    20:00 +27°C° 0.1 mm 1 mps 756 mmHg 95%
    21:00 +27°C° 0.1 mm 1 mps 756 mmHg 95%
    22:00 +25°C° 0.1 mm 0 mps 757 mmHg 95%
    23:00 +24°C° 0 mm 0 mps 756 mmHg 96%

    Tomorrow, 27 June, Thursday

    Time Temperature Precipitation Wind Pressure Humidity
    00:00 +24°C° 0 mm 0 mps 756 mmHg 97%
    01:00 +26°C° 0 mm 1 mps 756 mmHg 97%
    02:00 +26°C° 0 mm 1 mps 756 mmHg 98%
    03:00 +26°C° 0 mm 1 mps 756 mmHg 98%
    04:00 +26°C° 0 mm 1 mps 755 mmHg 98%
    05:00 +26°C° 0.2 mm 1 mps 756 mmHg 98%
    06:00 +26°C° 0.2 mm 1 mps 756 mmHg 97%
    07:00 +26°C° 0.2 mm 1 mps 756 mmHg 97%
    08:00 +28°C° 0 mm 1 mps 756 mmHg 90%
    09:00 +29°C° 0 mm 1 mps 756 mmHg 84%
    10:00 +31°C° 0 mm 1 mps 757 mmHg 78%
    11:00 +32°C° 0.4 mm 1 mps 756 mmHg 74%
    12:00 +33°C° 0.4 mm 1 mps 756 mmHg 71%
    13:00 +34°C° 0.4 mm 1 mps 756 mmHg 67%
    14:00 +33°C° 1.7 mm 1 mps 755 mmHg 74%
    15:00 +31°C° 1.7 mm 2 mps 755 mmHg 80%
    16:00 +30°C° 1.7 mm 2 mps 754 mmHg 87%
    17:00 +29°C° 1.3 mm 2 mps 755 mmHg 89%
    18:00 +28°C° 1.3 mm 1 mps 755 mmHg 91%
    19:00 +27°C° 1.3 mm 1 mps 755 mmHg 94%
    20:00 +27°C° 0 mm 1 mps 756 mmHg 94%
    21:00 +25°C° 0 mm 0 mps 756 mmHg 94%
    22:00 +25°C° 0 mm 0 mps 757 mmHg 95%
    23:00 +24°C° 0.3 mm 0 mps 757 mmHg 95%

    Day after tomorrow, 28 June, Friday

    Time Temperature Precipitation Wind Pressure Humidity
    00:00 +24°C° 0.3 mm 0 mps 756 mmHg 96%
    01:00 +24°C° 0.3 mm 0 mps 756 mmHg 96%
    02:00 +26°C° 1.2 mm 1 mps 756 mmHg 97%
    03:00 +26°C° 1.2 mm 1 mps 756 mmHg 97%
    04:00 +26°C° 1.2 mm 1 mps 755 mmHg 98%
    05:00 +26°C° 1.4 mm 1 mps 756 mmHg 97%
    06:00 +26°C° 1.4 mm 1 mps 756 mmHg 97%
    07:00 +26°C° 1.4 mm 1 mps 756 mmHg 97%
    08:00 +27°C° 0.1 mm 1 mps 757 mmHg 93%
    09:00 +28°C° 0.1 mm 1 mps 757 mmHg 90%
    10:00 +27°C° 0.1 mm 0 mps 757 mmHg 87%
    11:00 +28°C° 1.1 mm 0 mps 757 mmHg 85%
    12:00 +29°C° 1.1 mm 0 mps 757 mmHg 82%
    13:00 +29°C° 1.1 mm 0 mps 756 mmHg 80%
    14:00 +31°C° 1.2 mm 1 mps 756 mmHg 83%
    15:00 +30°C° 1.2 mm 1 mps 755 mmHg 86%
    16:00 +29°C° 1.2 mm 2 mps 755 mmHg 89%
    17:00 +29°C° 0.3 mm 2 mps 755 mmHg 91%
    18:00 +28°C° 0.3 mm 1 mps 756 mmHg 93%
    19:00 +27°C° 0.3 mm 1 mps 756 mmHg 95%
    20:00 +27°C° 0.3 mm 1 mps 756 mmHg 96%
    21:00 +27°C° 0.3 mm 1 mps 757 mmHg 96%
    22:00 +27°C° 0.3 mm 1 mps 758 mmHg 96%
    23:00 +26°C° 0.3 mm 1 mps 757 mmHg 97%

    29 June, Saturday

    Time Temperature Precipitation Wind Pressure Humidity
    00:00 +26°C° 0.3 mm 1 mps 757 mmHg 97%
    01:00 +24°C° 0.3 mm 0 mps 757 mmHg 97%
    02:00 +24°C° 0.1 mm 0 mps 756 mmHg 98%
    03:00 +24°C° 0.1 mm 0 mps 756 mmHg 98%
    04:00 +23°C° 0.1 mm 0 mps 756 mmHg 98%
    05:00 +24°C° 0.1 mm 0 mps 756 mmHg 97%
    06:00 +24°C° 0.1 mm 0 mps 756 mmHg 97%
    07:00 +24°C° 0.1 mm 0 mps 757 mmHg 96%
    08:00 +26°C° 0.2 mm 0 mps 757 mmHg 89%
    09:00 +28°C° 0.2 mm 0 mps 757 mmHg 82%
    10:00 +30°C° 0.2 mm 0 mps 758 mmHg 75%
    11:00 +32°C° 0.4 mm 1 mps 757 mmHg 75%
    12:00 +32°C° 0.4 mm 1 mps 757 mmHg 75%
    13:00 +32°C° 0.4 mm 2 mps 756 mmHg 75%
    14:00 +32°C° 0.4 mm 2 mps 756 mmHg 75%
    15:00 +32°C° 0.4 mm 2 mps 755 mmHg 75%
    16:00 +32°C° 0.4 mm 2 mps 755 mmHg 75%
    17:00 +30°C° 0.4 mm 2 mps 755 mmHg 80%
    18:00 +29°C° 0.4 mm 2 mps 756 mmHg 86%
    19:00 +28°C° 0.4 mm 2 mps 756 mmHg 91%
    20:00 +27°C° 0 mm 2 mps 756 mmHg 92%
    21:00 +27°C° 0 mm 1 mps 757 mmHg 93%
    22:00 +27°C° 0 mm 1 mps 758 mmHg 94%
    23:00 +27°C° 0.1 mm 1 mps 757 mmHg 94%

    30 June, Sunday

    Time Temperature Precipitation Wind Pressure Humidity
    00:00 +27°C° 0.1 mm 1 mps 757 mmHg 94%
    01:00 +25°C° 0.1 mm 0 mps 757 mmHg 94%
    02:00 +25°C° 1.1 mm 0 mps 757 mmHg 95%
    03:00 +26°C° 1.1 mm 1 mps 756 mmHg 96%
    04:00 +26°C° 1.1 mm 1 mps 756 mmHg 97%
    05:00 +26°C° 0 mm 1 mps 756 mmHg 96%
    06:00 +26°C° 0 mm 1 mps 756 mmHg 96%
    07:00 +27°C° 0 mm 1 mps 757 mmHg 96%
    08:00 +29°C° 0.1 mm 1 mps 757 mmHg 87%
    09:00 +31°C° 0.1 mm 1 mps 757 mmHg 78%
    10:00 +31°C° 0.1 mm 0 mps 757 mmHg 69%
    11:00 +33°C° 0.8 mm 1 mps 757 mmHg 72%
    12:00 +33°C° 0.8 mm 1 mps 756 mmHg 74%
    13:00 +33°C° 0.8 mm 1 mps 756 mmHg 77%
    14:00 +32°C° 2.4 mm 1 mps 755 mmHg 81%
    15:00 +31°C° 2.4 mm 2 mps 755 mmHg 84%
    16:00 +30°C° 2.4 mm 2 mps 755 mmHg 88%
    17:00 +29°C° 0.8 mm 2 mps 755 mmHg 90%
    18:00 +28°C° 0.8 mm 2 mps 755 mmHg 92%
    19:00 +27°C° 0.8 mm 2 mps 756 mmHg 94%
    20:00 +27°C° 0 mm 1 mps 756 mmHg 94%
    21:00 +27°C° 0 mm 1 mps 757 mmHg 94%
    22:00 +27°C° 0 mm 1 mps 757 mmHg 94%
    23:00 +27°C° 0.3 mm 1 mps 757 mmHg 95%

    1 July, Monday

    Time Temperature Precipitation Wind Pressure Humidity
    00:00 +27°C° 0.3 mm 1 mps 757 mmHg 95%
    01:00 +26°C° 0.3 mm 1 mps 757 mmHg 96%
    02:00 +26°C° 0.4 mm 1 mps 757 mmHg 96%
    03:00 +26°C° 0.4 mm 1 mps 757 mmHg 97%
    04:00 +26°C° 0.4 mm 1 mps 756 mmHg 97%
    05:00 +26°C° 1.2 mm 1 mps 757 mmHg 97%
    06:00 +26°C° 1.2 mm 1 mps 757 mmHg 97%
    07:00 +26°C° 1.2 mm 2 mps 757 mmHg 97%
    08:00 +27°C° 0.1 mm 1 mps 758 mmHg 92%
    09:00 +29°C° 0.1 mm 1 mps 758 mmHg 86%
    10:00 +30°C° 0.1 mm 1 mps 758 mmHg 80%
    11:00 +31°C° 0.1 mm 1 mps 758 mmHg 75%
    12:00 +33°C° 0.1 mm 1 mps 757 mmHg 69%
    13:00 +35°C° 0.1 mm 2 mps 757 mmHg 63%
    14:00 +34°C° 0.6 mm 2 mps 756 mmHg 69%
    15:00 +33°C° 0.6 mm 3 mps 756 mmHg 75%
    16:00 +31°C° 0.6 mm 3 mps 756 mmHg 80%
    17:00 +30°C° 0.5 mm 3 mps 756 mmHg 85%
    18:00 +28°C° 0.5 mm 2 mps 756 mmHg 90%
    19:00 +27°C° 0.5 mm 1 mps 757 mmHg 94%
    20:00 +27°C° 0.2 mm 1 mps 757 mmHg 95%
    21:00 +27°C° 0.2 mm 1 mps 758 mmHg 96%
    22:00 +25°C° 0.2 mm 0 mps 758 mmHg 97%
    23:00 +25°C° 0.1 mm 0 mps 758 mmHg 97%
    Show more